Location: Anjeux
(47.8815°N, 6.2076°E)
Time: 15:33:03
(UTC+00:00)

CZ-4B R/B - Pass Details

Date: 05 March 2021
Orbit: 496 x 646 km, 97.8° (Epoch: 14 April)

Event Time Altitude Azimuth Distance (km) Brightness Sun altitude
Rises 04:52:47 0° 10° (N) 2,672 7.5 -13.4°
Reaches altitude 10° 04:54:56 10° 7° (N) 1,758 6.6 -13.1°
Maximum altitude 04:58:40 63° 287° (WNW) 572 3.6 -12.5°
Drops below altitude 10° 05:02:16 10° 206° (SSW) 1,700 6.0 -11.9°
Sets 05:04:19 0° 203° (SSW) 2,572 7.0 -11.5°
